Location: Newark
(9.4667°S, 159.8167°E)
Time: 12:39:01
(UTC+00:00)

Vanguard 1 - Pass Details

Date: 14 November 2019
Orbit: 651 x 3832 km, 34.3° (Epoch: 14 December)

Event Time Altitude Azimuth Distance (km) Brightness Sun altitude
Rises 16:12:27 0° 239° (WSW) 7,284 14.3 -36.1°
Reaches altitude 10° 16:17:55 10° 230° (SW) 6,570 14.0 -35.0°
Maximum altitude 16:38:30 37° 168° (SSE) 4,953 13.8 -30.5°
Drops below altitude 10° 16:57:06 10° 105° (ESE) 6,030 15.0 -26.4°
Sets 17:01:44 0° 97° (E) 6,668 15.5 -25.4°
